KAZSAT-3

Last updated on Jan. 24, 2021, 6:18 a.m. UTC

1 39728U 14023B   21023.87285190  .00000074  00000-0  00000-0 0  9998
2 39728   0.0275 164.2996 0000120 294.5418  37.2699  1.00271716 22700
UTC
Height (km)
Latitude
Longitude
Inclination
Orbital Period
UTC large
Height (km)
Speed (km/s)
/
Latitude / Longitude
Inclination (degrees)
Orbital Period (minutes)
Azimuth
Elevation
Range (km)
Doppler Factor
iOS Compass Heading
iOS Angle

Next 30 passes for location: Hong Kong

Rise time Rise Azimuth (degrees) Set time Set Azimuth (degrees) Duration Max altitude (degrees)

No matching passes for this satellites